Regional Weather Roundup
Issued by NWS

Home | Current Version | Previous Version | Text Only | Print | Product List | Glossary On
Versions: 1 2 3 4 5 6 7 8 9 10 11 12 13 14 15 16 17 18 19 20 21 22 23 24 25 26 27
000
ASUS43 KDMX 231007
RWRIA

WEATHER ROUNDUP FOR IOWA
NATIONAL WEATHER SERVICE DES MOINES IA
500 AM CDT WED APR 23 2014

NOTE: "FAIR" INDICATES FEW OR NO CLOUDS BELOW 12,000 FEET WITH NO
SIGNIFICANT WEATHER AND/OR OBSTRUCTIONS TO VISIBILITY.

* - THESE STATIONS ARE NOT NWS STATIONS...THUS NOT UNDER NWS
QUALITY CONTROL.  THEY ALSO DO NOT REPORT WEATHER SUCH
AS PRECIPITATION OR FOG.

IAZ001>003-012>014-020>022-031>034-043>046-231100-
   NORTHWEST IOWA

CITY           SKY/WX    TMP DP  RH WIND       PRES   REMARKS
CARROLL *      CLOUDY    50  34  53 SE13G18   29.99S
CHEROKEE *     MOCLDY    50  36  57 SE10G16   29.96S
DENISON *      CLOUDY    50  34  53 SE13G20   29.94S
LE MARS *      MOCLDY    52  34  50 SE17      29.92S
ORANGE CITY *  MOCLDY    52  36  54 SE13      29.93R
SHELDON *      MOCLDY    50  36  57 SE18G24   29.94S
SIOUX CITY     TSTM      50  40  68 SE14      29.91S
SPENCER        CLOUDY    50  35  56 SE16      29.98S
STORM LAKE *   CLOUDY    48  36  61 SE18      29.97S
$$

IAZ055>058-069>071-079>083-090>094-231100-
   SOUTHWEST IOWA

CITY           SKY/WX    TMP DP  RH WIND       PRES   REMARKS
ATLANTIC *     MOCLDY    52  34  50 E12       29.97S
AUDUBON *      CLEAR     48  32  53 SE10      29.99S
CLARINDA *     CLOUDY    55  34  44 SE10G25   29.98F
COUNCIL BLFS * CLEAR     50  37  62 SE14      29.93R
CRESTON *      MOCLDY    50  34  53 E12       30.01S
HARLAN  *      PTCLDY    50  36  57 SE14G20   29.98F
LAMONI         CLOUDY    50  32  50 SE7       30.02R
RED OAK *      CLOUDY    54  36  50 SE15      29.95F
SHENANDOAH *   PTCLDY    54  36  50 SE15G21   29.95F
$$

IAZ047>049-059>061-072>074-084-231100-
   CENTRAL IOWA

CITY           SKY/WX    TMP DP  RH WIND       PRES   REMARKS
AMES           MOCLDY    49  32  52 E7        30.04S
ANKENY *       CLOUDY    50  32  50 E9        30.03F
CHARITON *     CLOUDY    48  34  57 E13       30.03F
DES MOINES     MOCLDY    52  32  46 E8        30.03S
GRINNELL*      CLOUDY    46  30  53 E13       30.07R
KNOXVILLE *    CLOUDY    48  36  61 E5        30.04R
MARSHALLTOWN   CLOUDY    45  31  58 E14       30.06S
NEWTON *       MOCLDY    46  30  53 E13       30.07R
PELLA *        PTCLDY    48  34  57 E8        30.07R
PERRY *        MOCLDY    50  30  46 E14       30.00F
$$

IAZ004>006-015-016-023>025-035-036-231100-
   NORTH CENTRAL IOWA

CITY           SKY/WX    TMP DP  RH WIND       PRES   REMARKS
ALGONA *       CLOUDY    48  30  49 SE17      30.01F
CLARION *      CLOUDY    48  30  49 SE21      30.03F
ESTHERVILLE    CLOUDY    46  35  65 SE14      29.99F
FORT DODGE *   MOCLDY    48  30  49 SE15      30.02F
MASON CITY     CLOUDY    45  31  58 E16       30.08S
FOREST CITY *  DRIZZLE   45  32  61 E14G20    30.04F
IOWA FALLS *     N/A     46  30  53 E14       30.08R
$$

IAZ007>011-017>019-026>030-037>042-050>054-066-231100-
   NORTHEAST IOWA

CITY           SKY/WX    TMP DP  RH WIND       PRES   REMARKS
CEDAR RAPIDS   PTCLDY    41  32  70 E9        30.09R
CHARLES CITY * CLOUDY    43  30  61 SE12      30.10S
CLINTON *      CLEAR     36  28  75 E9        30.15S WCI  29
DECORAH *      CLEAR     41  28  60 E7        30.11R
DUBUQUE        CLEAR     34  27  75 SE3       30.13R
MONTICELLO *   PTCLDY    37  30  75 E6        30.12R WCI  33
OELWEIN *      CLOUDY   N/A N/A N/A E14       30.11R
WATERLOO       CLOUDY    45  29  53 E14       30.10R
$$

IAZ064-065-067-068-078-231100-
   EAST CENTRAL IOWA

CITY           SKY/WX    TMP DP  RH WIND       PRES   REMARKS
DAVENPORT      CLEAR     36  28  73 E8        30.12R WCI  30
IOWA CITY      MOCLDY    41  33  73 E8        30.11R
MT. PLEASANT * PTCLDY    43  32  65 E13       30.09R
MUSCATINE *    CLEAR     41  32  70 SE7       30.12R
QUAD CITIES    CLEAR     34  29  82 E7        30.12R WCI  28
$$

IAZ062-063-075>077-085>089-095>099-231100-
   SOUTHEAST IOWA

CITY           SKY/WX    TMP DP  RH WIND       PRES   REMARKS
BURLINGTON     PTCLDY    41  32  70 E12       30.08S
FAIRFIELD *    CLEAR     41  32  70 E9        30.08R
FORT MADISON * CLEAR     43  36  75 E12       30.08R
KEOKUK *       MOCLDY    45  34  65 E14G21    30.07R
OSKALOOSA *    MOCLDY    45  34  65 E10       30.06R
CENTERVILLE *  CLEAR     45  32  61 E8        30.05S
OTTUMWA        MOCLDY    45  33  63 E9        30.05R
WASHINGTON *   PTCLDY    41  34  75 E13       30.09R
$$

ABBREVIATIONS USED IN REMARKS
   TC - TEMPERATURES IN CELSIUS
  WCI - WIND CHILL INDEX
   HX - HEAT INDEX
  VSB - VISIBILITY
$$




USA.gov is the U.S. government's official web portal to all federal, state and local government web resources and services.